Torna al catalogo

STARLINK-30953

AttivoComunicazioniVLEO
NORAD 58491·PAYLOAD·🇺🇸 United States

Lanciato Dec 3, 2023 da Cape Canaveral Space Force Station

Loading…

Prossimi Passaggi (prossime 24 ore)

TLE

AggiornatoSource: CelesTrak SupGP

Epoca: Sep 15, 2026, 02:47 UTC

1 58491C 23186U   26258.11645833  .00000154  00000+0  55839-5 0  2583
2 58491  42.9999 277.7215 0001451 262.5880 345.5209 15.27581752    16

Traccia STARLINK-30953 in tempo reale con AllMySat

Download on the App Store